Flag for Austria Weather past 2 weeks in Krems, Lower Austria, Austria

Now
33 °F

Passing clouds.


Feels Like: 33 °F
Forecast: 27 / 42 °F
Wind: 2 mph from Southwest

Location: Retz

Current Time: Jan 26, 2015 at 8:23:57 PM

Latest Report: Jan 26, 2015 at 7:00 PM


Visibility: 8 mi

Pressure: 30.19 "Hg

Humidity: 84%

Dew point: 28 °F

Location of KremsLocation

Historic Weather in Krems — Graph

°F

Krems temperature yesterday

Maximum temperature yesterday: 36 °F (at 2:00 PM)
Minimum temperature yesterday: 30 °F (at 5:00 AM)
Average temperature yesterday: 33 °F

Past Weeks' High & Low Weather Summary

 TemperatureHumidityPressure
High50 °F (Jan 13, 3:00 PM)100% (Jan 20, 3:00 PM)30.35 "Hg (Jan 20, 3:00 PM)
Low28 °F (Jan 26, 7:00 AM)56% (Jan 13, 4:00 PM)29.75 "Hg (Jan 17, 5:00 AM)
Average36 °F86%30.03 "Hg
* Reported Jan 11 7:00 PM — Jan 26 7:00 PM, Krems, Weather by CustomWeather, © 2014

Note: Actual official high and low records may vary slightly from our data, if they occured in-between our weather recording intervals... More about our weather records

Advertising

Krems weather history for previous 24 hours

 ConditionsComfort  
Time TempWeatherWind HumidityBarometerVisibility
7:00 PM
Jan 26
N/ALight fog.N/AN/AN/A7 mi
4:00 PM35 °FChilly.2 mph72%30.22 "HgN/A
3:00 PM37 °FChilly.2 mph66%30.23 "HgN/A
2:00 PM36 °FChilly.2 mph66%30.26 "HgN/A
1:00 PM36 °FPassing clouds.1 mph64%30.28 "Hg17 mi
12:00 PM36 °FChilly.1 mph68%30.29 "HgN/A
11:00 AM33 °FChilly.2 mph74%30.32 "HgN/A
10:00 AM31 °FChilly.3 mph82%30.34 "HgN/A
9:00 AM29 °FChilly.2 mph85%30.34 "HgN/A
8:00 AM29 °FChilly.5 mph87%30.35 "HgN/A
7:00 AM28 °FPassing clouds.3 mph87%30.34 "Hg5 mi
6:00 AM29 °FChilly.3 mph85%30.33 "HgN/A
5:00 AM29 °FChilly.5 mph83%30.33 "HgN/A
4:00 AM29 °FChilly.5 mph84%30.33 "HgN/A
3:00 AM29 °FChilly.5 mph85%30.33 "HgN/A
2:00 AM31 °FChilly.3 mph81%30.33 "HgN/A
1:00 AM32 °FChilly.3 mph80%30.32 "HgN/A
12:00 AM32 °FChilly.3 mph82%30.32 "HgN/A
11:00 PM
Jan 25
33 °FChilly.3 mph83%30.31 "HgN/A
9:00 PM33 °FChilly.2 mph84%30.30 "HgN/A
8:00 PM33 °FChilly.3 mph83%30.29 "HgN/A
Weather by CustomWeather, © 2014

See weather overviewHow to use our weather pages